Location: Newark
(54.6833°N, 25.2833°E)
Time: 15:31:02
(UTC+00:00)

deb Explorer IX - All Passes

Search period start: 17 November 2019 00:00
Search period end: 27 November 2019 00:00
Orbit: 546 x 1105 km, 38.8° (Epoch: 16 November)

Date Brightness Start Highest point End Pass type
(mag) Time Alt. Az. Time Alt. Az. Time Alt. Az.
17 Nov - 01:18:53 10° SSW 01:21:11 13° S 01:23:22 10° SSE visible
17 Nov - 03:04:53 10° SSW 03:06:51 12° S 03:08:43 10° SSE visible
18 Nov - 00:56:32 10° SSW 00:59:13 13° S 01:01:43 10° SE visible
18 Nov - 02:42:37 10° SW 02:44:54 13° S 02:47:03 10° SSE visible
19 Nov - 00:34:13 10° SSW 00:37:14 14° S 00:40:03 10° SE night (unlit)
19 Nov - 02:20:23 10° SW 02:22:56 13° S 02:25:22 10° SSE visible
20 Nov - 00:11:54 10° SSW 00:15:14 15° S 00:18:19 10° SE night (unlit)
20 Nov - 01:58:07 10° SW 02:00:58 14° SSW 02:03:38 10° SSE visible
20 Nov - 23:49:36 10° SSW 23:53:13 16° S 23:56:33 10° SE night (unlit)
21 Nov - 01:35:51 10° SW 01:38:58 15° SSW 01:41:53 10° SSE visible
21 Nov - 21:45:18 10° SSE 21:45:24 10° SSE 21:45:31 10° SSE night (unlit)
21 Nov - 23:27:19 10° SSW 23:31:11 17° S 23:34:46 10° SE night (unlit)
22 Nov - 01:13:35 10° SW 01:16:58 15° SSW 01:20:06 10° SSE visible
22 Nov - 21:21:58 10° SSE 21:23:21 11° SSE 21:24:42 10° SE night (unlit)
22 Nov - 23:05:01 10° SSW 23:09:08 17° S 23:12:57 10° SE night (unlit)
23 Nov - 00:51:20 10° SW 00:54:57 16° SSW 00:58:19 10° SSE night (unlit)
23 Nov - 20:59:21 10° S 21:01:15 11° SSE 21:03:08 10° SE night (unlit)
23 Nov - 22:42:45 10° SSW 22:47:05 18° S 22:51:06 10° SE night (unlit)
24 Nov - 00:29:04 10° SW 00:32:55 17° SSW 00:36:29 10° SSE night (unlit)
24 Nov - 20:36:52 10° S 20:39:10 12° SSE 20:41:26 10° SE night (unlit)
24 Nov - 22:20:29 10° SW 22:25:00 19° S 22:29:14 10° SE night (unlit)
25 Nov - 00:06:49 10° SW 00:10:53 17° SSW 00:14:39 10° SSE night (unlit)
25 Nov - 20:14:27 10° S 20:17:04 12° SSE 20:19:38 10° SE night (unlit)
25 Nov - 21:58:13 10° SW 22:02:55 19° S 22:07:20 10° SE night (unlit)
25 Nov - 23:44:34 10° SW 23:48:49 18° SSW 23:52:46 10° SSE night (unlit)
26 Nov - 19:52:06 10° S 19:54:57 13° SSE 19:57:47 10° SE night (unlit)
26 Nov - 21:35:58 10° SW 21:40:48 20° S 21:45:23 10° SE night (unlit)
26 Nov - 23:22:19 10° SW 23:26:44 18° SSW 23:30:51 10° SSE night (unlit)
